N5255R KRBD-KAFW

Flight info

Callsign N5255R
Flight time 0h 18m
Altitude 2000
Route FUZ
Aircraft C172/L-SFG/C

Departure

Time 2026-04-26 13:09
Airport Dallas Executive Airport (KRBD)

Arrival

Time 2026-04-26 13:27
Airport Perot Field/Fort Worth Alliance Airport (KAFW)
Time Latitude Longitude Altitude Speed Heading
2026-04-26 12:54 32.68163 -96.86516 646 ft 0 kts
2026-04-26 13:00 32.68166 -96.86516 646 ft 0 kts
2026-04-26 13:00 32.68177 -96.86520 646 ft 2 kts 307°
2026-04-26 13:01 32.68183 -96.86543 646 ft 3 kts 289°
2026-04-26 13:01 32.68198 -96.86567 645 ft 4 kts 325°
2026-04-26 13:01 32.68232 -96.86583 645 ft 7 kts 359°
2026-04-26 13:01 32.68294 -96.86583 643 ft 10 kts 360°
2026-04-26 13:02 32.68385 -96.86581 642 ft 13 kts 354°
2026-04-26 13:02 32.68474 -96.86584 640 ft 12 kts 355°
2026-04-26 13:02 32.68552 -96.86589 637 ft 10 kts 334°
2026-04-26 13:02 32.68568 -96.86610 637 ft 0 kts 266°
2026-04-26 13:06 32.68566 -96.86621 637 ft 3 kts 260°
2026-04-26 13:07 32.68567 -96.86674 637 ft 9 kts 250°
2026-04-26 13:07 32.68520 -96.86674 639 ft 3 kts 169°
2026-04-26 13:07 32.68497 -96.86672 639 ft 0 kts 172°
2026-04-26 13:08 32.68488 -96.86671 640 ft 9 kts 175°
2026-04-26 13:08 32.68263 -96.86678 644 ft 52 kts 176°
2026-04-26 13:08 32.67850 -96.86704 752 ft 61 kts 184°
2026-04-26 13:08 32.67428 -96.86764 895 ft 61 kts 182°
2026-04-26 13:09 32.67002 -96.86770 1032 ft 62 kts 161°
2026-04-26 13:09 32.66852 -96.86285 1130 ft 81 kts 72°
2026-04-26 13:09 32.67238 -96.85720 1227 ft 94 kts 45°
2026-04-26 13:09 32.67877 -96.85409 1328 ft 105 kts 14°
2026-04-26 13:10 32.68599 -96.85265 1455 ft 106 kts
2026-04-26 13:10 32.69304 -96.85488 1566 ft 106 kts 309°
2026-04-26 13:10 32.69645 -96.86207 1670 ft 97 kts 266°
2026-04-26 13:10 32.69779 -96.86996 1817 ft 96 kts 268°
2026-04-26 13:11 32.69886 -96.87769 1934 ft 96 kts 264°
2026-04-26 13:11 32.70000 -96.88602 1959 ft 108 kts 271°
2026-04-26 13:11 32.70265 -96.89497 1959 ft 121 kts 285°
2026-04-26 13:11 32.70681 -96.90395 1955 ft 127 kts 294°
2026-04-26 13:12 32.71183 -96.91284 1952 ft 128 kts 297°
2026-04-26 13:12 32.71713 -96.92136 1950 ft 126 kts 299°
2026-04-26 13:12 32.72243 -96.92956 1957 ft 125 kts 300°
2026-04-26 13:12 32.72787 -96.93780 1950 ft 124 kts 300°
2026-04-26 13:13 32.73313 -96.94571 1949 ft 122 kts 301°
2026-04-26 13:13 32.73844 -96.95364 1950 ft 122 kts 301°
2026-04-26 13:13 32.74380 -96.96165 1949 ft 122 kts 301°
2026-04-26 13:13 32.74915 -96.96965 1949 ft 122 kts 300°
2026-04-26 13:14 32.75444 -96.97752 1943 ft 122 kts 300°
2026-04-26 13:14 32.75974 -96.98545 1939 ft 122 kts 300°
2026-04-26 13:14 32.76509 -96.99341 1952 ft 122 kts 300°
2026-04-26 13:14 32.77042 -97.00137 1948 ft 122 kts 301°
2026-04-26 13:15 32.77575 -97.00931 1953 ft 123 kts 301°
2026-04-26 13:15 32.78105 -97.01723 1949 ft 123 kts 301°
2026-04-26 13:15 32.78644 -97.02526 1944 ft 123 kts 300°
2026-04-26 13:15 32.79001 -97.03059 1946 ft 123 kts 301°
2026-04-26 13:16 32.79716 -97.04123 1944 ft 123 kts 301°
2026-04-26 13:16 32.80250 -97.04922 1942 ft 123 kts 301°
2026-04-26 13:16 32.80783 -97.05718 1944 ft 123 kts 300°
2026-04-26 13:16 32.81317 -97.06514 1949 ft 123 kts 301°
2026-04-26 13:17 32.82389 -97.08118 1946 ft 123 kts 300°
2026-04-26 13:17 32.82926 -97.08920 1947 ft 123 kts 301°
2026-04-26 13:18 32.83995 -97.10519 1947 ft 123 kts 300°
2026-04-26 13:18 32.84538 -97.11333 1946 ft 124 kts 301°
2026-04-26 13:18 32.85621 -97.12951 1945 ft 124 kts 300°
2026-04-26 13:19 32.86155 -97.13751 1942 ft 124 kts 301°
2026-04-26 13:19 32.86697 -97.14561 1944 ft 123 kts 301°
2026-04-26 13:19 32.87236 -97.15368 1943 ft 123 kts 301°
2026-04-26 13:19 32.87775 -97.16172 1938 ft 122 kts 301°
2026-04-26 13:20 32.88303 -97.16966 1938 ft 122 kts 301°
2026-04-26 13:20 32.88828 -97.17754 1942 ft 122 kts 300°
2026-04-26 13:20 32.89220 -97.18617 1945 ft 121 kts 298°
2026-04-26 13:20 32.89821 -97.19368 1940 ft 124 kts 309°
2026-04-26 13:21 32.90421 -97.20100 1935 ft 123 kts 306°
2026-04-26 13:21 32.90815 -97.20609 1943 ft 122 kts 305°
2026-04-26 13:21 32.91569 -97.21618 1942 ft 122 kts 303°
2026-04-26 13:21 32.92137 -97.22398 1944 ft 123 kts 303°
2026-04-26 13:22 32.92690 -97.23164 1943 ft 123 kts 304°
2026-04-26 13:22 32.93246 -97.23941 1940 ft 122 kts 303°
2026-04-26 13:22 32.93801 -97.24715 1945 ft 123 kts 304°
2026-04-26 13:22 32.94357 -97.25493 1937 ft 123 kts 303°
2026-04-26 13:23 32.94914 -97.26271 1935 ft 122 kts 303°
2026-04-26 13:23 32.95468 -97.27042 1930 ft 123 kts 303°
2026-04-26 13:23 32.96022 -97.27819 1933 ft 122 kts 303°
2026-04-26 13:23 32.96574 -97.28592 1934 ft 121 kts 304°
2026-04-26 13:24 32.97126 -97.29349 1941 ft 120 kts 307°
2026-04-26 13:24 32.97712 -97.30078 1882 ft 121 kts 309°
2026-04-26 13:24 32.98215 -97.30865 1748 ft 116 kts 290°
2026-04-26 13:24 32.98453 -97.31735 1668 ft 107 kts 272°
2026-04-26 13:25 32.98540 -97.32586 1609 ft 103 kts 271°
2026-04-26 13:25 32.98836 -97.33383 1573 ft 107 kts 311°
2026-04-26 13:25 32.99539 -97.33649 1532 ft 107 kts 349°
2026-04-26 13:25 33.00275 -97.33836 1453 ft 109 kts 348°
2026-04-26 13:26 33.00991 -97.33999 1445 ft 102 kts 350°
2026-04-26 13:26 33.01628 -97.33889 1371 ft 92 kts 55°
2026-04-26 13:26 33.01849 -97.33233 1293 ft 76 kts 94°
2026-04-26 13:26 33.01692 -97.32743 1189 ft 63 kts 146°
2026-04-26 13:27 33.01321 -97.32529 1067 ft 54 kts 162°
2026-04-26 13:27 33.00942 -97.32428 887 ft 57 kts 166°
2026-04-26 13:27 33.00534 -97.32349 733 ft 58 kts 166°
2026-04-26 13:27 33.00172 -97.32274 700 ft 43 kts 166°
2026-04-26 13:28 32.99941 -97.32219 705 ft 25 kts 165°
2026-04-26 13:28 32.99786 -97.32177 710 ft 20 kts 160°
2026-04-26 13:28 32.99761 -97.32044 708 ft 18 kts 84°
2026-04-26 13:28 32.99792 -97.31901 707 ft 17 kts 47°
2026-04-26 13:29 32.99838 -97.31876 707 ft 0 kts 357°
2026-04-26 13:30 32.99842 -97.31876 707 ft 1 kts 358°
2026-04-26 13:30 32.99868 -97.31881 706 ft 5 kts 349°
2026-04-26 13:31 32.99917 -97.31895 704 ft 8 kts 347°
2026-04-26 13:31 32.99988 -97.31913 701 ft 11 kts 348°
2026-04-26 13:31 33.00078 -97.31935 698 ft 14 kts 349°
2026-04-26 13:31 33.00181 -97.31958 696 ft 15 kts 352°
2026-04-26 13:32 33.00297 -97.31981 692 ft 17 kts 356°
2026-04-26 13:32 33.00423 -97.32004 690 ft 18 kts 350°
2026-04-26 13:32 33.00549 -97.32037 688 ft 15 kts 307°
2026-04-26 13:32 33.00527 -97.32133 690 ft 10 kts 210°
2026-04-26 13:33 33.00478 -97.32134 691 ft 0 kts 169°
2026-04-26 13:33 33.00473 -97.32132 691 ft 7 kts 163°
2026-04-26 13:34 33.00261 -97.32092 696 ft 50 kts 168°
2026-04-26 13:34 32.99867 -97.32038 794 ft 60 kts 176°
2026-04-26 13:34 32.99435 -97.32014 908 ft 64 kts 170°
2026-04-26 13:34 32.99153 -97.31910 1013 ft 63 kts 149°
2026-04-26 13:35 32.98725 -97.31316 1126 ft 76 kts 131°
2026-04-26 13:35 32.98372 -97.30836 1266 ft 76 kts 137°
2026-04-26 13:35 32.97995 -97.30409 1420 ft 75 kts 141°
2026-04-26 13:35 32.97593 -97.30009 1556 ft 75 kts 144°
2026-04-26 13:36 32.97179 -97.29633 1695 ft 74 kts 147°
2026-04-26 13:36 32.96766 -97.29278 1833 ft 73 kts 149°
2026-04-26 13:36 32.96341 -97.28928 1938 ft 75 kts 150°
2026-04-26 13:36 32.95909 -97.28587 2081 ft 73 kts 152°
2026-04-26 13:37 32.95479 -97.28250 2209 ft 73 kts 153°
2026-04-26 13:37 32.95047 -97.27920 2324 ft 74 kts 153°
2026-04-26 13:37 32.94609 -97.27583 2445 ft 74 kts 154°
2026-04-26 13:37 32.94174 -97.27256 2571 ft 74 kts 155°
2026-04-26 13:38 32.93727 -97.26919 2699 ft 75 kts 156°
2026-04-26 13:38 32.93282 -97.26584 2816 ft 76 kts 158°
2026-04-26 13:38 32.92820 -97.26239 2905 ft 78 kts 158°
2026-04-26 13:38 32.92328 -97.25874 2937 ft 88 kts 157°
2026-04-26 13:39 32.91772 -97.25469 2942 ft 96 kts 156°
2026-04-26 13:39 32.91185 -97.25037 2942 ft 101 kts 156°
2026-04-26 13:39 32.90577 -97.24584 2941 ft 103 kts 155°
2026-04-26 13:39 32.89962 -97.24123 2943 ft 103 kts 156°
2026-04-26 13:40 32.89354 -97.23670 2945 ft 100 kts 155°
2026-04-26 13:40 32.88771 -97.23231 2941 ft 99 kts 156°
2026-04-26 13:40 32.88187 -97.22794 2947 ft 97 kts 155°
2026-04-26 13:40 32.87614 -97.22366 2942 ft 97 kts 156°
2026-04-26 13:41 32.87040 -97.21936 2945 ft 96 kts 155°
2026-04-26 13:41 32.86472 -97.21510 2945 ft 96 kts 156°
2026-04-26 13:41 32.85901 -97.21083 2939 ft 97 kts 156°
2026-04-26 13:41 32.85322 -97.20651 2940 ft 96 kts 157°
2026-04-26 13:42 32.84755 -97.20225 2939 ft 96 kts 156°
2026-04-26 13:42 32.84184 -97.19800 2940 ft 96 kts 156°
2026-04-26 13:42 32.83615 -97.19375 2940 ft 96 kts 156°
2026-04-26 13:42 32.83053 -97.18954 2947 ft 95 kts 156°
2026-04-26 13:43 32.82482 -97.18527 2946 ft 96 kts 156°
2026-04-26 13:43 32.81918 -97.18106 2945 ft 96 kts 156°
2026-04-26 13:43 32.81353 -97.17683 2946 ft 95 kts 156°
2026-04-26 13:43 32.80786 -97.17261 2947 ft 95 kts 155°
2026-04-26 13:44 32.80228 -97.16843 2948 ft 96 kts 155°
2026-04-26 13:44 32.79649 -97.16409 2944 ft 98 kts 156°
2026-04-26 13:44 32.79065 -97.15974 2945 ft 99 kts 155°
2026-04-26 13:44 32.78479 -97.15537 2946 ft 99 kts 155°
2026-04-26 13:45 32.77884 -97.15093 2948 ft 100 kts 156°
2026-04-26 13:45 32.77298 -97.14654 2945 ft 100 kts 156°
2026-04-26 13:45 32.76702 -97.14211 2947 ft 100 kts 155°
2026-04-26 13:45 32.76103 -97.13764 2952 ft 100 kts 156°
2026-04-26 13:46 32.75513 -97.13324 2947 ft 100 kts 155°
2026-04-26 13:46 32.74918 -97.12878 2945 ft 100 kts 155°
2026-04-26 13:46 32.74324 -97.12438 2947 ft 100 kts 156°
2026-04-26 13:46 32.73732 -97.11995 2946 ft 100 kts 155°
2026-04-26 13:47 32.73138 -97.11552 2944 ft 100 kts 155°
2026-04-26 13:47 32.72543 -97.11107 2942 ft 100 kts 155°
2026-04-26 13:47 32.71953 -97.10668 2945 ft 99 kts 156°
2026-04-26 13:47 32.71368 -97.10233 2948 ft 99 kts 155°
2026-04-26 13:48 32.70773 -97.09790 2945 ft 100 kts 156°
2026-04-26 13:48 32.70183 -97.09351 2945 ft 99 kts 156°
2026-04-26 13:48 32.69601 -97.08916 2950 ft 99 kts 155°
2026-04-26 13:48 32.69012 -97.08478 2948 ft 99 kts 155°
2026-04-26 13:49 32.68424 -97.08041 2951 ft 99 kts 154°
2026-04-26 13:49 32.67840 -97.07604 2945 ft 99 kts 155°
2026-04-26 13:49 32.67245 -97.07159 2957 ft 100 kts 155°
2026-04-26 13:49 32.66656 -97.06723 2949 ft 99 kts 156°
2026-04-26 13:50 32.66068 -97.06284 2950 ft 98 kts 154°
2026-04-26 13:50 32.65493 -97.05857 2945 ft 98 kts 155°
2026-04-26 13:50 32.64914 -97.05424 2949 ft 97 kts 155°
2026-04-26 13:50 32.64334 -97.04993 2963 ft 98 kts 155°
2026-04-26 13:51 32.63755 -97.04564 2946 ft 99 kts 155°
2026-04-26 13:51 32.63174 -97.04131 2952 ft 99 kts 155°
2026-04-26 13:51 32.62585 -97.03695 2949 ft 98 kts 155°
2026-04-26 13:51 32.62006 -97.03265 2953 ft 98 kts 155°
2026-04-26 13:52 32.61415 -97.02825 2952 ft 99 kts 155°
2026-04-26 13:52 32.60836 -97.02396 2952 ft 99 kts 155°
2026-04-26 13:52 32.60244 -97.01956 2953 ft 99 kts 155°
2026-04-26 13:52 32.59657 -97.01520 2951 ft 99 kts 154°
2026-04-26 13:53 32.59068 -97.01083 2952 ft 99 kts 155°
2026-04-26 13:53 32.58491 -97.00652 2951 ft 98 kts 155°
2026-04-26 13:53 32.57908 -97.00220 2956 ft 99 kts 155°
2026-04-26 13:53 32.57320 -96.99783 2959 ft 99 kts 155°
2026-04-26 13:54 32.56731 -96.99348 2953 ft 99 kts 155°
2026-04-26 13:54 32.56142 -96.98910 2957 ft 99 kts 155°
2026-04-26 13:54 32.55557 -96.98476 2957 ft 99 kts 155°
2026-04-26 13:55 32.54388 -96.97607 2956 ft 99 kts 156°
2026-04-26 13:55 32.53997 -96.97316 2958 ft 99 kts 155°
2026-04-26 13:55 32.52631 -96.96305 2961 ft 99 kts 155°
2026-04-26 13:56 32.52042 -96.95868 2964 ft 99 kts 155°
2026-04-26 13:56 32.51447 -96.95428 2959 ft 99 kts 155°
2026-04-26 13:56 32.50864 -96.94999 2837 ft 97 kts 155°
2026-04-26 13:56 32.50297 -96.94583 2635 ft 93 kts 155°
2026-04-26 13:57 32.49748 -96.94179 2437 ft 91 kts 155°
2026-04-26 13:57 32.49212 -96.93786 2246 ft 89 kts 154°
2026-04-26 13:57 32.48692 -96.93402 2050 ft 88 kts 154°
2026-04-26 13:57 32.48170 -96.93033 1842 ft 87 kts 159°
2026-04-26 13:58 32.47599 -96.92886 1708 ft 79 kts 173°
2026-04-26 13:58 32.47035 -96.92829 1597 ft 79 kts 177°
2026-04-26 13:58 32.46521 -96.92794 1618 ft 67 kts 168°
2026-04-26 13:58 32.46077 -96.92558 1525 ft 72 kts 149°
2026-04-26 13:59 32.45708 -96.92136 1461 ft 75 kts 135°
2026-04-26 13:59 32.45417 -96.91602 1374 ft 79 kts 126°
2026-04-26 13:59 32.45142 -96.91026 1318 ft 76 kts 127°
2026-04-26 14:00 32.46204 -96.89817 1257 ft 96 kts 14°
2026-04-26 14:00 32.46837 -96.89685 1192 ft 89 kts 12°
2026-04-26 14:00 32.47239 -96.89629 1148 ft 87 kts 358°
2026-04-26 14:01 32.47766 -96.90170 1103 ft 75 kts 268°
2026-04-26 14:01 32.47815 -96.90756 1087 ft 69 kts 252°
2026-04-26 14:01 32.47517 -96.91080 1024 ft 61 kts 192°
2026-04-26 14:01 32.47100 -96.91159 918 ft 58 kts 182°
2026-04-26 14:02 32.46698 -96.91189 786 ft 58 kts 179°
2026-04-26 14:02 32.46301 -96.91215 706 ft 51 kts 179°
2026-04-26 14:02 32.46032 -96.91228 700 ft 29 kts 185°
2026-04-26 14:02 32.45874 -96.91276 696 ft 19 kts 253°
2026-04-26 14:03 32.45881 -96.91351 695 ft 0 kts 277°